Goshen, CA

4:50 PM PDT on August 28, 2016 (GMT -0700)
Visalia Municipal

Weather History for KVIS - March, 2014

Change the Weather History Date:

Sunday, March 30, 2014

  Actual Average Record
Temperature  
Mean Temperature 55 °F -  
Max Temperature 62 °F 70 °F 87 °F (2015)
Min Temperature 48 °F 47 °F 31 °F (1938)
Degree Days  
Heating Degree Days 10    
Growing Degree Days 5 (Base 50)    
Moisture  
Dew Point 43 °F    
Average Humidity 66    
Maximum Humidity 82    
Minimum Humidity 45    
Precipitation  
Precipitation 0.00 in - - ()
Sea Level Pressure  
Sea Level Pressure 30.08 in    
Wind  
Wind Speed 7 mph (NW)    
Max Wind Speed 17 mph    
Max Gust Speed 24 mph    
Visibility 10 miles    
Events      
Averages and records for this station are not official NWS values.
T = Trace of Precipitation, MM = Missing Value Source: NWS Daily Summary

Daily Weather History Graph

Daily Weather History Graph

Search for Another Location

Airport or City:

Trip Planner

Search our weather history database for the weather conditions in past years. The results will help you decide how hot, cold, wet, or windy it might be!

Date:

Astronomy

Mar. 30, 2014 Rise Set
Actual Time 6:46 AM PDT 7:18 PM PDT
Civil Twilight 6:20 AM PDT 7:43 PM PDT
Nautical Twilight 5:50 AM PDT 8:14 PM PDT
Astronomical Twilight 5:19 AM PDT 8:45 PM PDT
Moon 6:35 AM PDT (3/30) 7:35 PM PDT (3/30)
Length of Visible Light 13h 23m
Length of Day
12h 31m
New Moon, 0% of the Moon is Illuminated
Mar 30
New Moon
Apr 7
First Quarter
Apr 15
Full
Apr 22
Last Quarter
Apr 28
New

Hourly Weather History & Observations

Time (PDT) Temp. Dew Point Humidity Pressure Visibility Wind Dir Wind Speed Gust Speed Precip Events Conditions
12:15 AM 51.8 °F 44.6 °F 76% 30.02 in 9.0 mi NNW 17.3 mph - N/A   Overcast
12:35 AM 51.8 °F 44.6 °F 76% 30.03 in 10.0 mi NNW 15.0 mph 24.2 mph N/A   Overcast
12:55 AM 51.8 °F 44.6 °F 76% 30.01 in 10.0 mi NNE 9.2 mph - N/A   Overcast
1:15 AM 51.8 °F 44.6 °F 76% 30.03 in 10.0 mi NNE 5.8 mph - N/A   Overcast
1:35 AM 51.8 °F 44.6 °F 76% 30.04 in 10.0 mi NW 6.9 mph - N/A   Overcast
1:55 AM 51.8 °F 44.6 °F 76% 30.04 in 10.0 mi NW 3.5 mph - N/A   Overcast
2:15 AM 51.8 °F 44.6 °F 76% 30.06 in 10.0 mi WNW 4.6 mph - N/A   Overcast
2:35 AM 50.0 °F 44.6 °F 82% 30.04 in 10.0 mi Calm Calm - N/A   Overcast
2:55 AM 51.8 °F 44.6 °F 76% 30.05 in 10.0 mi West 3.5 mph - N/A   Overcast
3:15 AM 51.8 °F 44.6 °F 76% 30.05 in 10.0 mi West 4.6 mph - N/A   Overcast
3:35 AM 51.8 °F 44.6 °F 76% 30.05 in 10.0 mi WNW 3.5 mph - N/A   Overcast
3:55 AM 51.8 °F 44.6 °F 76% 30.05 in 10.0 mi NW 3.5 mph - N/A   Overcast
4:15 AM 51.8 °F 44.6 °F 76% 30.05 in 10.0 mi WNW 4.6 mph - N/A   Mostly Cloudy
4:35 AM 51.8 °F 44.6 °F 76% 30.05 in 10.0 mi WNW 8.1 mph - N/A   Overcast
4:55 AM 50.0 °F 44.6 °F 82% 30.06 in 10.0 mi WNW 10.4 mph - N/A   Overcast
5:15 AM 50.0 °F 44.6 °F 82% 30.06 in 10.0 mi West 10.4 mph - N/A   Overcast
5:35 AM 48.2 °F 42.8 °F 82% 30.06 in 10.0 mi NW 6.9 mph - N/A   Overcast
5:55 AM 50.0 °F 42.8 °F 76% 30.06 in 10.0 mi WNW 5.8 mph - N/A   Overcast
6:15 AM 48.2 °F 42.8 °F 82% 30.06 in 10.0 mi West 4.6 mph - N/A   Mostly Cloudy
6:35 AM 48.2 °F 42.8 °F 82% 30.06 in 10.0 mi WNW 5.8 mph - N/A   Scattered Clouds
6:55 AM 48.2 °F 42.8 °F 82% 30.07 in 10.0 mi WNW 4.6 mph - N/A   Mostly Cloudy
7:15 AM 48.2 °F 42.8 °F 82% 30.07 in 10.0 mi WNW 3.5 mph - N/A   Scattered Clouds
7:35 AM 48.2 °F 42.8 °F 82% 30.08 in 10.0 mi West 5.8 mph - N/A   Clear
7:55 AM 48.2 °F 42.8 °F 82% 30.08 in 10.0 mi NW 4.6 mph - N/A   Clear
8:15 AM 50.0 °F 44.6 °F 82% 30.08 in 10.0 mi North 3.5 mph - N/A   Clear
8:35 AM 51.8 °F 44.6 °F 76% 30.09 in 10.0 mi NNE 8.1 mph - N/A   Clear
8:55 AM 51.8 °F 44.6 °F 76% 30.11 in 10.0 mi North 8.1 mph - N/A   Scattered Clouds
9:15 AM 51.8 °F 44.6 °F 76% 30.11 in 10.0 mi NNW 6.9 mph - N/A   Overcast
9:35 AM 53.6 °F 44.6 °F 72% 30.12 in 10.0 mi NNW 6.9 mph - N/A   Mostly Cloudy
9:55 AM 53.6 °F 44.6 °F 72% 30.12 in 10.0 mi North 8.1 mph - N/A   Mostly Cloudy
10:15 AM 53.6 °F 44.6 °F 72% 30.13 in 10.0 mi NNW 8.1 mph - N/A   Mostly Cloudy
10:35 AM 55.4 °F 44.6 °F 67% 30.14 in 10.0 mi NW 5.8 mph - N/A   Mostly Cloudy
10:55 AM 55.4 °F 42.8 °F 63% 30.15 in 10.0 mi NNW 5.8 mph - N/A   Mostly Cloudy
11:15 AM 55.4 °F 42.8 °F 63% 30.15 in 10.0 mi North 4.6 mph - N/A   Overcast
11:35 AM 55.4 °F 42.8 °F 63% 30.15 in 10.0 mi NW 5.8 mph - N/A   Mostly Cloudy
11:55 AM 57.2 °F 42.8 °F 59% 30.14 in 10.0 mi North 3.5 mph - N/A   Mostly Cloudy
12:15 PM 57.2 °F 42.8 °F 59% 30.14 in 10.0 mi West 4.6 mph - N/A   Mostly Cloudy
12:35 PM 57.2 °F 42.8 °F 59% 30.14 in 10.0 mi Calm Calm - N/A   Mostly Cloudy
12:55 PM 60.8 °F 44.6 °F 55% 30.13 in 10.0 mi Calm Calm - N/A   Mostly Cloudy
1:15 PM 60.8 °F 42.8 °F 52% 30.13 in 10.0 mi North 4.6 mph - N/A   Overcast
1:35 PM 60.8 °F 42.8 °F 52% 30.12 in 10.0 mi SSW 4.6 mph - N/A   Scattered Clouds
1:55 PM 60.8 °F 42.8 °F 52% 30.12 in 10.0 mi NW 6.9 mph - N/A   Mostly Cloudy
2:15 PM 60.8 °F 42.8 °F 52% 30.11 in 10.0 mi Calm Calm - N/A   Mostly Cloudy
2:35 PM 60.8 °F 44.6 °F 55% 30.10 in 10.0 mi NNW 5.8 mph - N/A   Mostly Cloudy
2:55 PM 62.6 °F 42.8 °F 48% 30.10 in 10.0 mi WNW 6.9 mph - N/A   Partly Cloudy
3:15 PM 62.6 °F 42.8 °F 48% 30.10 in 10.0 mi West 4.6 mph - N/A   Partly Cloudy
3:35 PM 62.6 °F 42.8 °F 48% 30.09 in 10.0 mi West 9.2 mph - N/A   Mostly Cloudy
3:55 PM 62.6 °F 42.8 °F 48% 30.08 in 10.0 mi West 8.1 mph - N/A   Mostly Cloudy
4:15 PM 62.6 °F 42.8 °F 48% 30.08 in 10.0 mi West 8.1 mph - N/A   Partly Cloudy
4:35 PM 62.6 °F 42.8 °F 48% 30.08 in 10.0 mi WNW 6.9 mph - N/A   Clear
4:55 PM 62.6 °F 42.8 °F 48% 30.07 in 10.0 mi WNW 6.9 mph - N/A   Clear
5:15 PM 62.6 °F 42.8 °F 48% 30.07 in 10.0 mi West 6.9 mph - N/A   Clear
5:35 PM 62.6 °F 41.0 °F 45% 30.06 in 10.0 mi West 4.6 mph - N/A   Clear
5:55 PM 62.6 °F 41.0 °F 45% 30.05 in 10.0 mi West 3.5 mph - N/A   Clear
6:15 PM 62.6 °F 41.0 °F 45% 30.05 in 10.0 mi NNW 4.6 mph - N/A   Clear
6:35 PM 62.6 °F 42.8 °F 48% 30.05 in 10.0 mi West 5.8 mph - N/A   Clear
6:55 PM 60.8 °F 42.8 °F 52% 30.05 in 10.0 mi NNW 5.8 mph - N/A   Clear
7:15 PM 60.8 °F 41.0 °F 48% 30.04 in 10.0 mi NW 3.5 mph - N/A   Clear
7:35 PM 59.0 °F 41.0 °F 51% 30.05 in 10.0 mi WNW 4.6 mph - N/A   Clear
7:55 PM 57.2 °F 42.8 °F 59% 30.05 in 10.0 mi West 3.5 mph - N/A   Clear
8:15 PM 55.4 °F 42.8 °F 63% 30.06 in 10.0 mi WSW 4.6 mph - N/A   Clear
8:35 PM 55.4 °F 42.8 °F 63% 30.07 in 10.0 mi WSW 3.5 mph - N/A   Clear
8:55 PM 53.6 °F 42.8 °F 67% 30.07 in 10.0 mi SW 4.6 mph - N/A   Clear
9:15 PM 53.6 °F 42.8 °F 67% 30.07 in 10.0 mi Calm Calm - N/A   Clear
9:35 PM 53.6 °F 42.8 °F 67% 30.07 in 10.0 mi Calm Calm - N/A   Clear
9:55 PM 53.6 °F 42.8 °F 67% 30.07 in 10.0 mi Calm Calm - N/A   Clear
10:15 PM 51.8 °F 42.8 °F 71% 30.07 in 10.0 mi Calm Calm - N/A   Clear
10:35 PM 53.6 °F 42.8 °F 67% 30.07 in 10.0 mi Calm Calm - N/A   Clear
10:55 PM 51.8 °F 41.0 °F 67% 30.07 in 10.0 mi Calm Calm - N/A   Clear
11:15 PM 51.8 °F 42.8 °F 71% 30.07 in 10.0 mi Calm Calm - N/A   Clear
11:35 PM 50.0 °F 41.0 °F 71% 30.06 in 10.0 mi Calm Calm - N/A   Clear
11:55 PM 50.0 °F 42.8 °F 76% 30.05 in 10.0 mi Calm Calm - N/A   Clear